COSMOS 1823 DEB, 26111

Orbit data source: Space-Track

COSMOS 1823 DEB, 26111 is space debris in LEO originally from a launch on Fri, 20 Feb 1987 UTC launched from the Plesetsk Missile And Space Complex (PKMTR). Debris objects in space refer to the collection of defunct objects orbiting the Earth. Examples of debris include non-operational satellites, rocket bodies, and fragments generated from explosions, collisions, or faulty payload assembly.

Loading next visibility...
Identifier
26111, 1987-020DS
Orbit
LEO
Country
Flag of CISCIS
Related business
Manufacturer
Unknown
Mission
Spacecraft
Bus & Motor
Unknown
Mass
Unknown
Launch date (UTC)
1987-02-20 (39 years ago)
Launch vehicle
Unknown
Launch site
Plesetsk Missile And Space Complex (PKMTR)
Object type
Payload
Rocket body
Debris
Shape & HBR
Unknown shape, 0.1 m
Radar Cross Section
Medium (>0.1 m² and <1 m²)

Expand to show TLE details & history
Last TLE update: 3 days ago

TLE from 3 days ago
0 COSMOS 1823 DEB
1 26111U 87020DS  26171.00242722  .00000076  00000-0  67318-3 0  9995
2 26111  73.6029  16.9924 0030814 218.7054 292.7543 12.42963564782869
Epoch: 2026-06-20T00:03Z
TLE epoch observation values (Epoch: 2026-06-20T00:03:29.711Z)
Latitude
27.63321°
Longitude
-80.92283°
Altitude
1,487.619 km
Speed
7.127 km/s
True Right ascension
12h 32m 41s
True Declination
27° 30' 19"
Sunlit
Object was in daylight at epoch
Visualization orbit readout
Latitude
Unknown
Longitude
Unknown
Altitude
Unknown
Speed
Unknown
Apparent Right ascension
Unknown
Apparent Declination
Unknown
Sunlit
N/A
Visualization observer readout
Local Sidereal Time
05:04:26
Azimuth
Unknown
Elevation
Unknown
Doppler factor
Unknown
Orbital elements
Apogee altitude
1,516.193 km
Perigee altitude
1,467.691 km
Semi-major axis
7,870.079 km
Eccentricity
0.00308
Inclination
73.6029°
RAAN
16.9924°
Arg. of periapsis
218.7054°
True anomaly
292.42819°
Mean anomaly
292.7543°
Eccentric anomaly
292.5913°
Mean motion
3.10867 °/min
Orbital period
115.81 mins
BSTAR
0.00067318
Loading maneuver chart data...
Computing Atmospheric mass density...
Loading historical data...
Loading historical data...
Loading historical data...
Loading historical data...
Loading historical data...
Loading historical data...
Loading historical data...

Documentation

Showing up to 5 results
|